Nantucket, Massachusetts, United States (02554)
Lat: 41.28N, Lon: 70.1W
Wx Zone: MAZ024
Local Info
Past Weather Observations for Today

NOTE: This archive is for the closest National Weather Service station to Nantucket. Information may differ from the station used for current weather conditions.

Click here for Long-term Archive

Time Weather Temperature Dewpoint Humidity Pressure Winds Precip Visibility
17:53
Clear
66°F / 19°C 61°F / 16°C 83% 29.95 in
(1014 mb)
SW 12.7 mph
(SW 20 kph)
- 10SM
16:53
Clear
68°F / 20°C 61°F / 16°C 78% 29.92 in
(1013 mb)
SW 15 mph
(SW 24 kph)
- 10SM
15:53
Clear
70°F / 21°C 61°F / 16°C 73% 29.92 in
(1013 mb)
SW 15 mph
(SW 24 kph)
- 10SM
14:53
Clear
70°F / 21°C 61°F / 16°C 73% 29.92 in
(1013 mb)
SW 16.1 mph
(SW 26 kph)
- 10SM
13:53
Clear
70°F / 21°C 61°F / 16°C 73% 29.92 in
(1013 mb)
SW 17.3 mph
(SW 28 kph)
- 10SM
12:53
Partly Cloudy
70°F / 21°C 61°F / 16°C 73% 29.89 in
(1012 mb)
SW 17.3 mph
(SW 28 kph)
- 10SM
11:53
Clear
70°F / 21°C 61°F / 16°C 73% 29.89 in
(1012 mb)
SW 15 mph
(SW 24 kph)
- 10SM
10:53
Partly Cloudy
70°F / 21°C 63°F / 17°C 78% 29.89 in
(1012 mb)
SW 17.3 mph
(SW 28 kph)
- 10SM
09:53
Clear
70°F / 21°C 63°F / 17°C 78% 29.86 in
(1011 mb)
SW 18.4 mph
(SW 30 kph)
- 10SM
08:53
Partly Cloudy
70°F / 21°C 63°F / 17°C 78% 29.86 in
(1011 mb)
SW 17.3 mph
(SW 28 kph)
- 10SM
08:23
Partly Cloudy
64°F / 18°C 61°F / 16°C 88% 29.86 in
(1011 mb)
SSE 8.1 mph
(SSE 13 kph)
- 10SM
07:56
Overcast
Fog And Mist
63°F / 17°C 61°F / 16°C 94% 29.86 in
(1011 mb)
S 6.9 mph
(S 11 kph)
- 3SM
07:53
Overcast
Fog And Mist
63°F / 17°C 61°F / 16°C 94% 29.86 in
(1011 mb)
S 8.1 mph
(S 13 kph)
- 1 1/2SM
07:51
Obscured
Fog And Mist
63°F / 17°C 61°F / 16°C 94% 29.83 in
(1010 mb)
SSE 6.9 mph
(SSE 11 kph)
- 1SM
07:37
Obscured
Fog
61°F / 16°C 59°F / 15°C 94% 29.83 in
(1010 mb)
SE 6.9 mph
(SE 11 kph)
- 1/4SM
07:24
Obscured
Fog
61°F / 16°C 59°F / 15°C 94% 29.83 in
(1010 mb)
SSE 6.9 mph
(SSE 11 kph)
- 1/2SM
06:53
Obscured
Fog
59°F / 15°C 57°F / 14°C 94% 29.83 in
(1010 mb)
SE 11.5 mph
(SE 19 kph)
- 1/4SM
06:45
Obscured
Fog
57°F / 14°C 57°F / 14°C 100% 29.83 in
(1010 mb)
SE 10.4 mph
(SE 17 kph)
- 1/4SM
05:53
Obscured
Fog
57°F / 14°C 55°F / 13°C 94% 29.83 in
(1010 mb)
SE 9.2 mph
(SE 15 kph)
- 1/2SM
04:53
Overcast
Fog And Mist
57°F / 14°C 55°F / 13°C 94% 29.83 in
(1010 mb)
ESE 6.9 mph
(ESE 11 kph)
- 3/4SM
04:26
Overcast
Fog And Mist
57°F / 14°C 55°F / 13°C 94% 29.83 in
(1010 mb)
ESE 6.9 mph
(ESE 11 kph)
- 1 3/4SM
04:03
Overcast
Fog And Mist
57°F / 14°C 55°F / 13°C 94% 29.83 in
(1010 mb)
E 5.8 mph
(E 9 kph)
- 2 1/2SM
03:53
Overcast
Fog And Mist
59°F / 15°C 55°F / 13°C 88% 29.8 in
(1009 mb)
E 4.6 mph
(E 7 kph)
- 4SM
02:53
Overcast
61°F / 16°C 55°F / 13°C 83% 29.8 in
(1009 mb)
Calm - 10SM
01:53
Overcast
61°F / 16°C 57°F / 14°C 88% 29.8 in
(1009 mb)
W 3.5 mph
(W 6 kph)
- 10SM
00:53
Overcast
61°F / 16°C 57°F / 14°C 88% 29.8 in
(1009 mb)
NW 3.5 mph
(NW 6 kph)
- 10SM
Time Weather Temperature Dewpoint Humidity Pressure Winds Precip Visibility


Weather for websites

WeatherForYou.com, LLC is not responsible for any damages or problems caused by this service. Current weather conditions are obtained from the closest station including government and personal stations which may have varying degrees of accuracy. Weather forecasts are derived from the NOAA NDFD. Like all things, this site belongs to Jesus Christ... He just trusts us to maintain it. If you have any questions or comments email webmaster@weatherforyou.com

Copyright © 2015, WeatherForYou.com LLC. All rights reserved.